,,,PA_Meas_PMT16A,,PR_Meas_QMR101_102,,RH_Meas_QMH101,,SR_Meas_QMS101,,TA_Meas_QMH101,,GenWind,,GenWind,
date,time,status,PA,status,PR,status,RH,status,SR,status,TA,status,DirAvg,status,SpdAvg,
2010-09-12, 00:00:04,VALID,1000.92,VALID,0,VALID,92.6923,VALID,0,VALID,23.1744,VALID,120,VALID,0.000390625,
2010-09-12, 00:01:04,VALID,1000.89,VALID,0,VALID,92.6923,VALID,0,VALID,23.1744,VALID,120,VALID,0.329688,
2010-09-12, 00:02:04,VALID,1000.87,VALID,0,VALID,92.6846,VALID,0,VALID,23.1744,VALID,116,VALID,0.526172,
2010-09-12, 00:03:04,VALID,1000.85,VALID,0,VALID,92.6923,VALID,0,VALID,23.1744,VALID,63,VALID,0.553516,
2010-09-12, 00:04:04,VALID,1000.84,VALID,0,VALID,92.7075,VALID,0,VALID,23.1744,VALID,63,VALID,0.552344,
2010-09-12, 00:05:04,VALID,1000.85,VALID,0,VALID,92.6923,VALID,0,VALID,23.1744,VALID,84,VALID,0.797266,
2010-09-12, 00:06:04,VALID,1000.82,VALID,0,VALID,92.7075,VALID,0,VALID,23.1744,VALID,89,VALID,0.878125,
2010-09-12, 00:07:04,VALID,1000.8,VALID,0,VALID,92.6846,VALID,0,VALID,23.1744,VALID,91,VALID,1.12188,
2010-09-12, 00:08:04,VALID,1000.8,VALID,0,VALID,92.6388,VALID,0,VALID,23.2134,VALID,91,VALID,0.799219,
2010-09-12, 00:09:04,VALID,1000.8,VALID,0,VALID,92.6083,VALID,0,VALID,23.2329,VALID,88,VALID,0.689453,
2010-09-12, 00:10:04,VALID,1000.82,VALID,0,VALID,92.5626,VALID,0,VALID,23.2329,VALID,88,VALID,0.659766,
2010-09-12, 00:11:04,VALID,1000.83,VALID,0,VALID,92.5168,VALID,0,VALID,23.2524,VALID,88,VALID,0.548828,
2010-09-12, 00:12:04,VALID,1000.84,VALID,0,VALID,92.4939,VALID,0,VALID,23.2329,VALID,88,VALID,0.397266,
2010-09-12, 00:13:04,VALID,1000.85,VALID,0,VALID,92.4634,VALID,0,VALID,23.2329,VALID,88,VALID,0.347266,
2010-09-12, 00:14:04,VALID,1000.86,VALID,0,VALID,92.4481,VALID,0,VALID,23.2524,VALID,88,VALID,0.155859,
2010-09-12, 00:15:04,VALID,1000.89,VALID,0,VALID,92.41,VALID,0,VALID,23.2329,VALID,88,VALID,0.2375,
2010-09-12, 00:16:04,VALID,1000.88,VALID,0,VALID,92.3794,VALID,0,VALID,23.2542,VALID,88,VALID,0.345703,
2010-09-12, 00:17:04,VALID,1000.87,VALID,0,VALID,92.3566,VALID,0,VALID,23.2329,VALID,50,VALID,0.619141,
2010-09-12, 00:18:04,VALID,1000.87,VALID,0,VALID,92.326,VALID,0,VALID,23.2329,VALID,21,VALID,0.775781,
2010-09-12, 00:19:04,VALID,1000.9,VALID,0,VALID,92.326,VALID,0,VALID,23.2134,VALID,22,VALID,0.745313,
2010-09-12, 00:20:04,VALID,1000.9,VALID,0,VALID,92.3184,VALID,0,VALID,23.1921,VALID,12,VALID,0.885938,
2010-09-12, 00:21:04,VALID,1000.87,VALID,0,VALID,92.3566,VALID,0,VALID,23.1939,VALID,12,VALID,0.790625,
2010-09-12, 00:22:04,VALID,1000.86,VALID,0,VALID,92.3871,VALID,0,VALID,23.1744,VALID,12,VALID,0.803125,
2010-09-12, 00:23:04,VALID,1000.85,VALID,0,VALID,92.4481,VALID,0,VALID,23.1744,VALID,12,VALID,0.581641,
2010-09-12, 00:24:04,VALID,1000.86,VALID,0,VALID,92.4786,VALID,0,VALID,23.1549,VALID,12,VALID,0.675,
2010-09-12, 00:25:04,VALID,1000.85,VALID,0,VALID,92.4786,VALID,0,VALID,23.1549,VALID,12,VALID,0.525781,
2010-09-12, 00:26:04,VALID,1000.85,VALID,0,VALID,92.4786,VALID,0,VALID,23.1354,VALID,26,VALID,0.623438,
2010-09-12, 00:27:04,VALID,1000.85,VALID,0,VALID,92.5015,VALID,0,VALID,23.1159,VALID,28,VALID,0.542188,
2010-09-12, 00:28:04,VALID,1000.85,VALID,0,VALID,92.5015,VALID,0,VALID,23.1354,VALID,28,VALID,0.607813,
2010-09-12, 00:29:04,VALID,1000.83,VALID,0,VALID,92.4939,VALID,0,VALID,23.1159,VALID,28,VALID,0.437109,
2010-09-12, 00:30:04,VALID,1000.86,VALID,0,VALID,92.5015,VALID,0,VALID,23.1159,VALID,28,VALID,0.294922,
2010-09-12, 00:31:04,VALID,1000.85,VALID,0,VALID,92.4786,VALID,0,VALID,23.1354,VALID,25,VALID,0.652344,
2010-09-12, 00:32:04,VALID,1000.85,VALID,0,VALID,92.532,VALID,0,VALID,23.1354,VALID,23,VALID,0.678906,
2010-09-12, 00:33:04,VALID,1000.83,VALID,0,VALID,92.5549,VALID,0,VALID,23.1549,VALID,7,VALID,0.450391,
2010-09-12, 00:34:04,VALID,1000.84,VALID,0,VALID,92.6465,VALID,0,VALID,23.1531,VALID,5,VALID,0.389062,
2010-09-12, 00:35:04,VALID,1000.84,VALID,0,VALID,92.6999,VALID,0,VALID,23.1939,VALID,353,VALID,0.397266,
2010-09-12, 00:36:04,VALID,1000.83,VALID,0,VALID,92.738,VALID,0,VALID,23.1939,VALID,353,VALID,0.239844,
2010-09-12, 00:37:04,VALID,1000.86,VALID,0,VALID,92.7533,VALID,0,VALID,23.2329,VALID,353,VALID,0,
2010-09-12, 00:38:04,VALID,1000.86,VALID,0,VALID,92.7762,VALID,0,VALID,23.2524,VALID,353,VALID,0.14375,
2010-09-12, 00:39:04,VALID,1000.85,VALID,0,VALID,92.7762,VALID,0,VALID,23.2524,VALID,353,VALID,0.105469,
2010-09-12, 00:40:04,VALID,1000.86,VALID,0,VALID,92.7762,VALID,0,VALID,23.2719,VALID,353,VALID,0.084375,
2010-09-12, 00:41:04,VALID,1000.84,VALID,0,VALID,92.7609,VALID,0,VALID,23.2719,VALID,353,VALID,0.21875,
2010-09-12, 00:42:04,VALID,1000.83,VALID,0,VALID,92.7685,VALID,0,VALID,23.2719,VALID,353,VALID,0.230078,
2010-09-12, 00:43:04,VALID,1000.84,VALID,0,VALID,92.7533,VALID,0,VALID,23.2915,VALID,353,VALID,0.266406,
2010-09-12, 00:44:04,VALID,1000.81,VALID,0,VALID,92.7533,VALID,0,VALID,23.2915,VALID,353,VALID,0.366016,
2010-09-12, 00:45:04,VALID,1000.8,VALID,0,VALID,92.7075,VALID,0,VALID,23.3127,VALID,353,VALID,0.194141,
2010-09-12, 00:46:04,VALID,1000.82,VALID,0,VALID,92.6846,VALID,0,VALID,23.2719,VALID,353,VALID,0.138281,
2010-09-12, 00:47:04,VALID,1000.8,VALID,0,VALID,92.677,VALID,0,VALID,23.2719,VALID,353,VALID,0.126172,
2010-09-12, 00:48:04,VALID,1000.8,VALID,0,VALID,92.6846,VALID,0,VALID,23.2719,VALID,353,VALID,0.229687,
2010-09-12, 00:49:04,VALID,1000.78,VALID,0,VALID,92.7151,VALID,0,VALID,23.2719,VALID,353,VALID,0,
2010-09-12, 00:50:04,VALID,1000.77,VALID,0,VALID,92.6999,VALID,0,VALID,23.2524,VALID,353,VALID,0.213281,
2010-09-12, 00:51:04,VALID,1000.76,VALID,0,VALID,92.7228,VALID,0,VALID,23.2507,VALID,353,VALID,0.00976563,
2010-09-12, 00:52:04,VALID,1000.73,VALID,0,VALID,92.7151,VALID,0,VALID,23.2524,VALID,353,VALID,0.114063,
2010-09-12, 00:53:04,VALID,1000.74,VALID,0,VALID,92.738,VALID,0,VALID,23.2524,VALID,353,VALID,0.346484,
2010-09-12, 00:54:04,VALID,1000.7,VALID,0,VALID,92.7609,VALID,0,VALID,23.2312,VALID,353,VALID,0.537109,
2010-09-12, 00:55:04,VALID,1000.68,VALID,0,VALID,92.7991,VALID,0,VALID,23.2719,VALID,353,VALID,0.580859,
2010-09-12, 00:56:04,VALID,1000.66,VALID,0,VALID,92.822,VALID,0,VALID,23.2915,VALID,353,VALID,0.583594,
2010-09-12, 00:57:04,VALID,1000.67,VALID,0,VALID,92.8143,VALID,0,VALID,23.2897,VALID,353,VALID,0.621875,
2010-09-12, 00:58:04,VALID,1000.63,VALID,0,VALID,92.7838,VALID,0,VALID,23.2897,VALID,103,VALID,0.683594,
2010-09-12, 00:59:04,VALID,1000.6,VALID,0,VALID,92.7609,VALID,0,VALID,23.3305,VALID,104,VALID,0.708984,
2010-09-12, 01:00:04,VALID,1000.61,VALID,0,VALID,92.7151,VALID,0,VALID,23.3305,VALID,110,VALID,0.655859,
2010-09-12, 01:01:04,VALID,1000.62,VALID,0,VALID,92.6388,VALID,0,VALID,23.3305,VALID,110,VALID,0.584766,
2010-09-12, 01:02:04,VALID,1000.61,VALID,0,VALID,92.6083,VALID,0,VALID,23.3305,VALID,110,VALID,0.494922,
2010-09-12, 01:03:04,VALID,1000.64,VALID,0,VALID,92.5091,VALID,0,VALID,23.3305,VALID,110,VALID,0.410156,
2010-09-12, 01:04:04,VALID,1000.62,VALID,0,VALID,92.4786,VALID,0,VALID,23.311,VALID,110,VALID,0.450781,
2010-09-12, 01:05:04,VALID,1000.64,VALID,0,VALID,92.4634,VALID,0,VALID,23.3305,VALID,110,VALID,0.316406,
2010-09-12, 01:06:04,VALID,1000.61,VALID,0,VALID,92.4557,VALID,0,VALID,23.311,VALID,110,VALID,0.0585938,
2010-09-12, 01:07:04,VALID,1000.6,VALID,0,VALID,92.471,VALID,0,VALID,23.3092,VALID,110,VALID,0.451562,
2010-09-12, 01:08:04,VALID,1000.63,VALID,0,VALID,92.4939,VALID,0,VALID,23.2897,VALID,110,VALID,0.433203,
2010-09-12, 01:09:04,VALID,1000.62,VALID,0,VALID,92.5244,VALID,0.112286,VALID,23.2897,VALID,110,VALID,0.332031,
2010-09-12, 01:10:04,VALID,1000.6,VALID,0,VALID,92.5473,VALID,0,VALID,23.2684,VALID,110,VALID,0.340234,
2010-09-12, 01:11:04,VALID,1000.62,VALID,0,VALID,92.5473,VALID,0,VALID,23.2702,VALID,110,VALID,0.297266,
2010-09-12, 01:12:04,VALID,1000.63,VALID,0,VALID,92.532,VALID,0,VALID,23.2702,VALID,110,VALID,0.303125,
2010-09-12, 01:13:04,VALID,1000.64,VALID,0,VALID,92.5626,VALID,0,VALID,23.2507,VALID,110,VALID,0.308203,
2010-09-12, 01:14:04,VALID,1000.61,VALID,0,VALID,92.5778,VALID,0,VALID,23.2099,VALID,110,VALID,0.361719,
2010-09-12, 01:15:04,VALID,1000.6,VALID,0,VALID,92.6007,VALID,0.112286,VALID,23.2312,VALID,110,VALID,0.2625,
2010-09-12, 01:16:04,VALID,1000.61,VALID,0,VALID,92.6312,VALID,0,VALID,23.1904,VALID,110,VALID,0.295703,
2010-09-12, 01:17:04,VALID,1000.6,VALID,0,VALID,92.6388,VALID,0.112286,VALID,23.2312,VALID,110,VALID,0,
2010-09-12, 01:18:04,VALID,1000.58,VALID,0,VALID,92.6388,VALID,0.112286,VALID,23.2117,VALID,110,VALID,0,
2010-09-12, 01:19:04,VALID,1000.58,VALID,0,VALID,92.6846,VALID,0.112286,VALID,23.2312,VALID,110,VALID,0,
2010-09-12, 01:20:04,VALID,1000.6,VALID,0,VALID,92.6999,VALID,0,VALID,23.2312,VALID,110,VALID,0,
2010-09-12, 01:21:04,VALID,1000.56,VALID,0,VALID,92.7228,VALID,0,VALID,23.2507,VALID,110,VALID,0,
2010-09-12, 01:22:04,VALID,1000.58,VALID,0,VALID,92.738,VALID,0,VALID,23.2329,VALID,110,VALID,0,
2010-09-12, 01:23:04,VALID,1000.58,VALID,0,VALID,92.7685,VALID,0,VALID,23.2329,VALID,110,VALID,0,
2010-09-12, 01:24:04,VALID,1000.6,VALID,0,VALID,92.7685,VALID,0,VALID,23.2134,VALID,110,VALID,0,
2010-09-12, 01:25:04,VALID,1000.59,VALID,0,VALID,92.7914,VALID,0,VALID,23.2134,VALID,110,VALID,0,
2010-09-12, 01:26:04,VALID,1000.62,VALID,0,VALID,92.7762,VALID,0,VALID,23.1939,VALID,110,VALID,0,
2010-09-12, 01:27:04,VALID,1000.64,VALID,0,VALID,92.7838,VALID,0,VALID,23.1744,VALID,110,VALID,0,
2010-09-12, 01:28:04,VALID,1000.64,VALID,0,VALID,92.8296,VALID,0,VALID,23.1939,VALID,110,VALID,0,
2010-09-12, 01:29:04,VALID,1000.69,VALID,0,VALID,92.8906,VALID,0,VALID,23.2134,VALID,110,VALID,0,
2010-09-12, 01:30:04,VALID,1000.71,VALID,0,VALID,92.9211,VALID,0,VALID,23.2134,VALID,110,VALID,0,
2010-09-12, 01:31:04,VALID,1000.72,VALID,0,VALID,92.9593,VALID,0,VALID,23.2329,VALID,110,VALID,0,
2010-09-12, 01:32:04,VALID,1000.74,VALID,0,VALID,92.944,VALID,0,VALID,23.2134,VALID,110,VALID,0,
2010-09-12, 01:33:04,VALID,1000.75,VALID,0,VALID,92.944,VALID,0,VALID,23.1939,VALID,110,VALID,0,
2010-09-12, 01:34:04,VALID,1000.73,VALID,0,VALID,92.9517,VALID,0,VALID,23.1939,VALID,110,VALID,0,
2010-09-12, 01:35:04,VALID,1000.75,VALID,0,VALID,92.9669,VALID,0,VALID,23.1939,VALID,110,VALID,0,
2010-09-12, 01:36:04,VALID,1000.73,VALID,0,VALID,92.9669,VALID,0,VALID,23.1939,VALID,110,VALID,0,
2010-09-12, 01:37:04,VALID,1000.74,VALID,0,VALID,92.9593,VALID,0,VALID,23.1744,VALID,110,VALID,0,
2010-09-12, 01:38:04,VALID,1000.73,VALID,0,VALID,92.9593,VALID,0,VALID,23.1354,VALID,110,VALID,0,
2010-09-12, 01:39:04,VALID,1000.66,VALID,0,VALID,92.9211,VALID,0,VALID,23.1159,VALID,110,VALID,0,
2010-09-12, 01:40:04,VALID,1000.66,VALID,0,VALID,92.9211,VALID,0,VALID,23.0769,VALID,110,VALID,0,
2010-09-12, 01:41:04,VALID,1000.65,VALID,0,VALID,92.9135,VALID,0,VALID,23.0378,VALID,110,VALID,0,
2010-09-12, 01:42:04,VALID,1000.66,VALID,0,VALID,92.9059,VALID,0,VALID,23.0183,VALID,110,VALID,0,
2010-09-12, 01:43:04,VALID,1000.63,VALID,0,VALID,92.9364,VALID,0,VALID,23.0573,VALID,110,VALID,0,
2010-09-12, 01:44:04,VALID,1000.59,VALID,0,VALID,93.0051,VALID,0,VALID,23.0769,VALID,110,VALID,0,
2010-09-12, 01:45:04,VALID,1000.58,VALID,0,VALID,93.0661,VALID,0,VALID,23.0964,VALID,110,VALID,0,
2010-09-12, 01:46:04,VALID,1000.63,VALID,0,VALID,93.1119,VALID,0,VALID,23.0964,VALID,343,VALID,0,
2010-09-12, 01:47:04,VALID,1000.6,VALID,0,VALID,93.1271,VALID,0,VALID,23.0769,VALID,343,VALID,0,
2010-09-12, 01:48:04,VALID,1000.56,VALID,0,VALID,93.15,VALID,0,VALID,23.0769,VALID,343,VALID,0,
2010-09-12, 01:49:04,VALID,1000.56,VALID,0,VALID,93.1729,VALID,0,VALID,23.0573,VALID,343,VALID,0,
2010-09-12, 01:50:04,VALID,1000.53,VALID,0,VALID,93.1882,VALID,0,VALID,23.0573,VALID,359,VALID,0,
2010-09-12, 01:51:04,VALID,1000.47,VALID,0,VALID,93.2111,VALID,0,VALID,23.0378,VALID,19,VALID,0,
2010-09-12, 01:52:04,VALID,1000.47,VALID,0,VALID,93.2187,VALID,0,VALID,22.9988,VALID,21,VALID,0,
2010-09-12, 01:53:04,VALID,1000.45,VALID,0,VALID,93.2492,VALID,0,VALID,23.0183,VALID,27,VALID,0,
2010-09-12, 01:54:04,VALID,1000.43,VALID,0,VALID,93.2492,VALID,0,VALID,23.0183,VALID,27,VALID,0.604688,
2010-09-12, 01:55:04,VALID,1000.42,VALID,0,VALID,93.2492,VALID,0,VALID,22.9988,VALID,27,VALID,0.494531,
2010-09-12, 01:56:04,VALID,1000.41,VALID,0,VALID,93.2492,VALID,0,VALID,23.0006,VALID,27,VALID,0.340234,
2010-09-12, 01:57:04,VALID,1000.4,VALID,0,VALID,93.2492,VALID,0,VALID,22.9793,VALID,27,VALID,0.206641,
2010-09-12, 01:58:04,VALID,1000.37,VALID,0,VALID,93.2416,VALID,0,VALID,22.9598,VALID,27,VALID,0,
2010-09-12, 01:59:04,VALID,1000.39,VALID,0,VALID,93.2645,VALID,0,VALID,22.9598,VALID,27,VALID,0.00429688,
2010-09-12, 02:00:04,VALID,1000.38,VALID,0,VALID,93.2492,VALID,0,VALID,22.9793,VALID,18,VALID,0.00507812,
2010-09-12, 02:01:04,VALID,1000.35,VALID,0,VALID,93.2721,VALID,0,VALID,23.0183,VALID,281,VALID,0.79375,
2010-09-12, 02:02:04,VALID,1000.37,VALID,0,VALID,93.3103,VALID,0,VALID,23.0573,VALID,254,VALID,0.971484,
2010-09-12, 02:03:04,VALID,1000.37,VALID,0,VALID,93.3179,VALID,0,VALID,23.0964,VALID,250,VALID,1.06172,
2010-09-12, 02:04:04,VALID,1000.37,VALID,0,VALID,93.356,VALID,0,VALID,23.1159,VALID,233,VALID,0.868359,
2010-09-12, 02:05:04,VALID,1000.34,VALID,0,VALID,93.3713,VALID,0,VALID,23.1159,VALID,243,VALID,0.929688,
2010-09-12, 02:06:04,VALID,1000.29,VALID,0,VALID,93.3408,VALID,0,VALID,23.1354,VALID,223,VALID,0.578125,
2010-09-12, 02:07:04,VALID,1000.3,VALID,0,VALID,93.3408,VALID,0,VALID,23.1354,VALID,223,VALID,0.391797,
2010-09-12, 02:08:04,VALID,1000.28,VALID,0,VALID,93.3255,VALID,0,VALID,23.1549,VALID,202,VALID,0.649609,
2010-09-12, 02:09:04,VALID,1000.27,VALID,0,VALID,93.3179,VALID,0,VALID,23.1744,VALID,191,VALID,0.85625,
2010-09-12, 02:10:04,VALID,1000.28,VALID,0,VALID,93.3026,VALID,0,VALID,23.2134,VALID,182,VALID,1.08633,
2010-09-12, 02:11:04,VALID,1000.3,VALID,0,VALID,93.2874,VALID,0,VALID,23.2915,VALID,190,VALID,1.43594,
2010-09-12, 02:12:04,VALID,1000.3,VALID,0,VALID,93.2492,VALID,0,VALID,23.3305,VALID,205,VALID,1.02969,
2010-09-12, 02:13:04,VALID,1000.3,VALID,0,VALID,93.1882,VALID,0,VALID,23.3482,VALID,214,VALID,0.758203,
2010-09-12, 02:14:04,VALID,1000.3,VALID,0,VALID,93.089,VALID,0,VALID,23.3695,VALID,221,VALID,0.538281,
2010-09-12, 02:15:04,VALID,1000.29,VALID,0,VALID,92.9288,VALID,0,VALID,23.3695,VALID,232,VALID,0.733594,
2010-09-12, 02:16:04,VALID,1000.24,VALID,0,VALID,92.7914,VALID,0,VALID,23.35,VALID,249,VALID,0.846875,
2010-09-12, 02:17:04,VALID,1000.24,VALID,0,VALID,92.6312,VALID,0,VALID,23.3305,VALID,244,VALID,1.14922,
2010-09-12, 02:18:04,VALID,1000.21,VALID,0,VALID,92.4328,VALID,0,VALID,23.2719,VALID,232,VALID,1.07187,
2010-09-12, 02:19:04,VALID,1000.18,VALID,0,VALID,92.3337,VALID,0,VALID,23.2312,VALID,226,VALID,1.27891,
2010-09-12, 02:20:04,VALID,1000.15,VALID,0,VALID,92.3108,VALID,0,VALID,23.2134,VALID,204,VALID,1.34023,
2010-09-12, 02:21:04,VALID,1000.12,VALID,0,VALID,92.326,VALID,0,VALID,23.2134,VALID,191,VALID,0.979688,
2010-09-12, 02:22:04,VALID,1000.12,VALID,0,VALID,92.4023,VALID,0,VALID,23.2134,VALID,196,VALID,1.11094,
2010-09-12, 02:23:04,VALID,1000.12,VALID,0,VALID,92.4405,VALID,0,VALID,23.2312,VALID,226,VALID,0.735937,
2010-09-12, 02:24:04,VALID,1000.14,VALID,0,VALID,92.3642,VALID,0,VALID,23.2117,VALID,279,VALID,1.00937,
2010-09-12, 02:25:04,VALID,1000.14,VALID,0,VALID,92.3184,VALID,0,VALID,23.2134,VALID,292,VALID,1.1918,
2010-09-12, 02:26:04,VALID,1000.16,VALID,0,VALID,92.2803,VALID,0,VALID,23.1744,VALID,301,VALID,1.25273,
2010-09-12, 02:27:04,VALID,1000.14,VALID,0,VALID,92.2955,VALID,0,VALID,23.1141,VALID,309,VALID,1.25117,
2010-09-12, 02:28:04,VALID,1000.14,VALID,0,VALID,92.3566,VALID,0,VALID,23.1159,VALID,313,VALID,0.660547,
2010-09-12, 02:29:04,VALID,1000.11,VALID,0,VALID,92.4023,VALID,0,VALID,23.0769,VALID,313,VALID,0.504297,
2010-09-12, 02:30:04,VALID,1000.11,VALID,0,VALID,92.4557,VALID,0,VALID,23.0378,VALID,310,VALID,0.320703,
2010-09-12, 02:31:04,VALID,1000.12,VALID,0,VALID,92.532,VALID,0,VALID,23.0378,VALID,310,VALID,0,
2010-09-12, 02:32:04,VALID,1000.09,VALID,0,VALID,92.6083,VALID,0,VALID,23.0573,VALID,236,VALID,0,
2010-09-12, 02:33:04,VALID,1000.07,VALID,0,VALID,92.6694,VALID,0,VALID,23.0378,VALID,234,VALID,0,
2010-09-12, 02:34:04,VALID,1000.1,VALID,0,VALID,92.7228,VALID,0,VALID,23.0378,VALID,234,VALID,0,
2010-09-12, 02:35:04,VALID,1000.1,VALID,0,VALID,92.7457,VALID,0,VALID,23.0378,VALID,226,VALID,0.729688,
2010-09-12, 02:36:04,VALID,1000.09,VALID,0,VALID,92.7685,VALID,0,VALID,23.0378,VALID,218,VALID,0.917578,
2010-09-12, 02:37:04,VALID,1000.1,VALID,0,VALID,92.7914,VALID,0,VALID,23.0573,VALID,201,VALID,0.963281,
2010-09-12, 02:38:04,VALID,1000.1,VALID,0,VALID,92.8296,VALID,0,VALID,23.0964,VALID,201,VALID,0.604688,
2010-09-12, 02:39:04,VALID,1000.07,VALID,0,VALID,92.822,VALID,0,VALID,23.1159,VALID,178,VALID,0.974219,
2010-09-12, 02:40:04,VALID,1000.09,VALID,0,VALID,92.7685,VALID,0,VALID,23.0946,VALID,174,VALID,0.725781,
2010-09-12, 02:41:04,VALID,1000.09,VALID,0,VALID,92.6999,VALID,0,VALID,23.1159,VALID,174,VALID,0.536719,
2010-09-12, 02:42:04,VALID,1000.07,VALID,0,VALID,92.6388,VALID,0,VALID,23.0946,VALID,174,VALID,0.407031,
2010-09-12, 02:43:04,VALID,1000.06,VALID,0,VALID,92.5473,VALID,0,VALID,23.0964,VALID,174,VALID,0.275391,
2010-09-12, 02:44:04,VALID,1000.08,VALID,0,VALID,92.4863,VALID,0,VALID,23.0751,VALID,174,VALID,0.462109,
2010-09-12, 02:45:04,VALID,1000.07,VALID,0,VALID,92.3947,VALID,0,VALID,23.0573,VALID,157,VALID,0.530078,
2010-09-12, 02:46:04,VALID,1000.11,VALID,0,VALID,92.3337,VALID,0,VALID,23.0183,VALID,157,VALID,0.594922,
2010-09-12, 02:47:04,VALID,1000.11,VALID,0,VALID,92.3184,VALID,0,VALID,22.9776,VALID,157,VALID,0.564062,
2010-09-12, 02:48:04,VALID,1000.11,VALID,0,VALID,92.3489,VALID,0,VALID,22.9598,VALID,157,VALID,0.694141,
2010-09-12, 02:49:04,VALID,1000.09,VALID,0,VALID,92.4863,VALID,0,VALID,22.9403,VALID,94,VALID,0.782422,
2010-09-12, 02:50:04,VALID,1000.1,VALID,0,VALID,92.5244,VALID,0,VALID,22.9208,VALID,94,VALID,0.874219,
2010-09-12, 02:51:04,VALID,1000.1,VALID,0,VALID,92.5778,VALID,0,VALID,22.9013,VALID,94,VALID,0.764063,
2010-09-12, 02:52:04,VALID,1000.07,VALID,0,VALID,92.6694,VALID,0,VALID,22.8818,VALID,94,VALID,0.701563,
2010-09-12, 02:53:04,VALID,1000.1,VALID,0,VALID,92.738,VALID,0,VALID,22.8623,VALID,94,VALID,0.695703,
2010-09-12, 02:54:04,VALID,1000.1,VALID,0,VALID,92.7914,VALID,0,VALID,22.8427,VALID,94,VALID,0.68125,
2010-09-12, 02:55:04,VALID,1000.06,VALID,0,VALID,92.8601,VALID,0,VALID,22.8427,VALID,94,VALID,0.604297,
2010-09-12, 02:56:04,VALID,1000.06,VALID,0,VALID,92.9211,VALID,0,VALID,22.8427,VALID,94,VALID,0.515234,
2010-09-12, 02:57:04,VALID,1000.03,VALID,0,VALID,92.9974,VALID,0.112286,VALID,22.841,VALID,94,VALID,0.573828,
2010-09-12, 02:58:04,VALID,1000.01,VALID,0,VALID,93.0585,VALID,0,VALID,22.8818,VALID,94,VALID,0.659375,
2010-09-12, 02:59:04,VALID,1000,VALID,0,VALID,93.1195,VALID,0.112286,VALID,22.8818,VALID,94,VALID,0.627734,
2010-09-12, 03:00:04,VALID,999.997,VALID,0,VALID,93.15,VALID,0,VALID,22.8623,VALID,107,VALID,0.555859,
2010-09-12, 03:01:04,VALID,999.996,VALID,0,VALID,93.1577,VALID,0,VALID,22.8623,VALID,107,VALID,0.406641,
2010-09-12, 03:02:04,VALID,1000.01,VALID,0,VALID,93.1577,VALID,0,VALID,22.8623,VALID,107,VALID,0,
2010-09-12, 03:03:04,VALID,999.975,VALID,0,VALID,93.1348,VALID,0,VALID,22.8427,VALID,107,VALID,0.00195313,
2010-09-12, 03:04:04,VALID,1000.01,VALID,0,VALID,93.1577,VALID,0,VALID,22.8427,VALID,107,VALID,0.382813,
2010-09-12, 03:05:04,VALID,999.986,VALID,0,VALID,93.1958,VALID,0,VALID,22.8215,VALID,340,VALID,0.843359,
2010-09-12, 03:06:04,VALID,999.971,VALID,0,VALID,93.1805,VALID,0,VALID,22.8037,VALID,340,VALID,0.935547,
2010-09-12, 03:07:04,VALID,1000.01,VALID,0,VALID,93.15,VALID,0,VALID,22.763,VALID,340,VALID,0.865625,
2010-09-12, 03:08:04,VALID,999.987,VALID,0,VALID,93.1577,VALID,0,VALID,22.7647,VALID,340,VALID,0.610547,
2010-09-12, 03:09:04,VALID,999.971,VALID,0,VALID,93.15,VALID,0,VALID,22.7257,VALID,352,VALID,0.896094,
2010-09-12, 03:10:04,VALID,999.982,VALID,0,VALID,93.1729,VALID,0,VALID,22.7062,VALID,352,VALID,0.782031,
2010-09-12, 03:11:04,VALID,999.974,VALID,0,VALID,93.2111,VALID,0,VALID,22.6867,VALID,352,VALID,0.596094,
2010-09-12, 03:12:04,VALID,999.963,VALID,0,VALID,93.2111,VALID,0,VALID,22.6867,VALID,352,VALID,0.611328,
2010-09-12, 03:13:04,VALID,999.98,VALID,0,VALID,93.2797,VALID,0,VALID,22.6655,VALID,3,VALID,0.599219,
2010-09-12, 03:14:04,VALID,999.966,VALID,0,VALID,93.3026,VALID,0,VALID,22.6867,VALID,5,VALID,0.562891,
2010-09-12, 03:15:04,VALID,999.969,VALID,0,VALID,93.3255,VALID,0,VALID,22.6867,VALID,19,VALID,0.735547,
2010-09-12, 03:16:04,VALID,999.972,VALID,0,VALID,93.3713,VALID,0,VALID,22.6672,VALID,19,VALID,0.661328,
2010-09-12, 03:17:04,VALID,999.943,VALID,0,VALID,93.3637,VALID,0,VALID,22.6264,VALID,19,VALID,0.856641,
2010-09-12, 03:18:04,VALID,999.916,VALID,0,VALID,93.3789,VALID,0,VALID,22.6282,VALID,25,VALID,0.921875,
2010-09-12, 03:19:04,VALID,999.924,VALID,0,VALID,93.4018,VALID,0,VALID,22.6069,VALID,27,VALID,0.896875,
2010-09-12, 03:20:04,VALID,999.912,VALID,0,VALID,93.4247,VALID,0,VALID,22.6087,VALID,27,VALID,0.753906,
2010-09-12, 03:21:04,VALID,999.901,VALID,0,VALID,93.4476,VALID,0,VALID,22.5892,VALID,27,VALID,0.793359,
2010-09-12, 03:22:04,VALID,999.858,VALID,0,VALID,93.4628,VALID,0,VALID,22.5892,VALID,27,VALID,0.909766,
2010-09-12, 03:23:04,VALID,999.873,VALID,0,VALID,93.4476,VALID,0,VALID,22.5696,VALID,27,VALID,0.835938,
2010-09-12, 03:24:04,VALID,999.866,VALID,0,VALID,93.4781,VALID,0,VALID,22.5501,VALID,27,VALID,0.861328,
2010-09-12, 03:25:04,VALID,999.897,VALID,0,VALID,93.4934,VALID,0,VALID,22.5289,VALID,27,VALID,0.764453,
2010-09-12, 03:26:04,VALID,999.889,VALID,0,VALID,93.5239,VALID,0,VALID,22.5501,VALID,27,VALID,0.779688,
2010-09-12, 03:27:04,VALID,999.885,VALID,0,VALID,93.5239,VALID,0,VALID,22.5501,VALID,46,VALID,0.739062,
2010-09-12, 03:28:04,VALID,999.898,VALID,0,VALID,93.5315,VALID,0,VALID,22.5501,VALID,46,VALID,0.920703,
2010-09-12, 03:29:04,VALID,999.869,VALID,0,VALID,93.562,VALID,0,VALID,22.5289,VALID,47,VALID,1.06641,
2010-09-12, 03:30:04,VALID,999.882,VALID,0,VALID,93.6002,VALID,0,VALID,22.5501,VALID,49,VALID,0.943359,
2010-09-12, 03:31:04,VALID,999.904,VALID,0,VALID,93.5773,VALID,0,VALID,22.5696,VALID,49,VALID,0.864453,
2010-09-12, 03:32:04,VALID,999.896,VALID,0,VALID,93.5926,VALID,0,VALID,22.5501,VALID,49,VALID,0.640625,
2010-09-12, 03:33:04,VALID,999.857,VALID,0,VALID,93.6002,VALID,0,VALID,22.5696,VALID,49,VALID,0.391406,
2010-09-12, 03:34:04,VALID,999.895,VALID,0,VALID,93.6078,VALID,0,VALID,22.5501,VALID,49,VALID,0.152344,
2010-09-12, 03:35:04,VALID,999.891,VALID,0,VALID,93.6002,VALID,0,VALID,22.5306,VALID,49,VALID,0,
2010-09-12, 03:36:04,VALID,999.886,VALID,0,VALID,93.6078,VALID,0,VALID,22.5111,VALID,49,VALID,0,
2010-09-12, 03:37:04,VALID,999.865,VALID,0,VALID,93.6078,VALID,0,VALID,22.4916,VALID,49,VALID,0,
2010-09-12, 03:38:04,VALID,999.885,VALID,0,VALID,93.6002,VALID,0,VALID,22.4916,VALID,49,VALID,0,
2010-09-12, 03:39:04,VALID,999.901,VALID,0,VALID,93.6002,VALID,0,VALID,22.4916,VALID,49,VALID,0,
2010-09-12, 03:40:04,VALID,999.89,VALID,0,VALID,93.6154,VALID,0,VALID,22.5111,VALID,49,VALID,0.365625,
2010-09-12, 03:41:04,VALID,999.893,VALID,0,VALID,93.6307,VALID,0,VALID,22.4916,VALID,49,VALID,0.441797,
2010-09-12, 03:42:04,VALID,999.891,VALID,0,VALID,93.646,VALID,0,VALID,22.5111,VALID,49,VALID,0.800391,
2010-09-12, 03:43:04,VALID,999.928,VALID,0,VALID,93.6688,VALID,0,VALID,22.5111,VALID,49,VALID,0.857813,
2010-09-12, 03:44:04,VALID,999.902,VALID,0,VALID,93.6841,VALID,0,VALID,22.5306,VALID,49,VALID,0.928516,
2010-09-12, 03:45:04,VALID,999.904,VALID,0,VALID,93.6994,VALID,0,VALID,22.5484,VALID,49,VALID,1.01875,
2010-09-12, 03:46:04,VALID,999.9,VALID,0,VALID,93.6917,VALID,0,VALID,22.5696,VALID,51,VALID,0.8875,
2010-09-12, 03:47:04,VALID,999.927,VALID,0,VALID,93.707,VALID,0,VALID,22.5501,VALID,51,VALID,0.655859,
2010-09-12, 03:48:04,VALID,999.934,VALID,0,VALID,93.6994,VALID,0,VALID,22.5306,VALID,49,VALID,0.627734,